Regional Weather Roundup
Issued by NWS Charleston, SC

Current Version | Previous Version | Graphics & Text | Print | Product List | Glossary On
Versions: 1 2 3 4 5 6 7 8 9 10 11 12 13 14 15 16 17 18 19 20 21 22 23 24 25 26 27 28 29 30 31 32 33 34 35 36 37 38 39 40 41 42 43 44 45 46 47 48 49 50
000
ASUS42 KCHS 291227
RWRCHS

REGIONAL WEATHER ROUNDUP
NATIONAL WEATHER SERVICE CHARLESTON SC
800 AM EDT MON JUN 29 2015

NOTE: "FAIR" INDICATES FEW OR NO CLOUDS BELOW 12,000 FEET WITH NO
SIGNIFICANT WEATHER AND/OR OBSTRUCTIONS TO VISIBILITY.

NOT ALL STATIONS ARE QUALITY CONTROLLED BY THE NATIONAL
WEATHER SERVICE. USE DATA WITH CAUTION...ESPECIALLY
DEWPOINT OBSERVATIONS.

SCZ027-030-031-034>040-042>050-291300-
...SOUTHEAST SOUTH CAROLINA...

CITY           SKY/WX    TMP DP  RH WIND       PRES   REMARKS
N CHARLESTON   PTSUNNY   76  71  85 W7        29.98R
6HR MIN TEMP:  74; 6HR MAX TEMP:  76;

WATERFRONT PAR   N/A     75  73  93 VRB2      29.95R
MOUNT PLEASANT LGT RAIN  77  73  88 W3        29.98R
JOHNS ISLAND   FAIR      77  73  88 W6        29.99R
PINOPOLIS      NOT AVBL
MONCKS CORNER  CLOUDY    77  70  78 CALM      29.98R
SUMMERVILLE    FAIR      75  72  88 W3        29.99R
BEAUFORT MCAS  PTSUNNY   75  72  90 SW6       29.99R
6HR MIN TEMP:  73; 6HR MAX TEMP:  75;

BEAUFORT ARPT  FAIR      77  73  88 W8        29.99R
HILTON HEAD IS MOSUNNY   75  73  94 W8        30.00R
WALTERBORO     PTSUNNY   73  70  88 W3        30.00R
ALLENDALE      FAIR      73  68  83 CALM      29.99R

...SOUTHERN MIDLANDS AND PEE DEE...

CITY           SKY/WX    TMP DP  RH WIND       PRES   REMARKS
GEORGETOWN     NOT AVBL
KINGSTREE      NOT AVBL
ORANGEBURG     SUNNY     71  65  81 SW3       29.98R
6HR MIN TEMP:  67; 6HR MAX TEMP:  73;

BARNWELL       FAIR      72  66  83 W6        30.00R
AIKEN          FAIR      68  57  68 SW3       30.03R
MANNING        NOT AVBL
COLUMBIA       MOSUNNY   70  61  73 SW6       29.97R
6HR MIN TEMP:  65; 6HR MAX TEMP:  70;

SUMTER         NOT AVBL
FLORENCE       SUNNY     73  66  78 CALM      29.96R
6HR MIN TEMP:  70; 6HR MAX TEMP:  74;

MYRTLE BEACH   PTSUNNY   77  72  83 W6        29.98R
N MYRTLE BEACH CLOUDY    77  73  87 CALM      29.97R
6HR MIN TEMP:  75; 6HR MAX TEMP:  77;


$$

GAZ063-065-086>088-099>101-113>116-118-119-134>141-150-291300-
...SOUTHEAST GEORGIA...

CITY           SKY/WX    TMP DP  RH WIND       PRES   REMARKS
SAVANNAH ARPT  PTSUNNY   73  70  90 W8        30.00R
6HR MIN TEMP:  72; 6HR MAX TEMP:  74;

HUNTER AAF     PTSUNNY   75  75 100 SW6       29.99R
6HR MIN TEMP:  72; 6HR MAX TEMP:  74;

FORT STEWART   PTSUNNY   74  71  91 W5        29.99R
6HR MIN TEMP:  73; 6HR MAX TEMP:  74;

STATESBORO     SUNNY     73  73 100 CALM      30.01R
SYLVANIA       SUNNY     73  72  95 CALM      30.01S
CLAXTON        CLOUDY    72  72 100 CALM      30.02R FOG

...CSRA...CENTRAL AND FAR SOUTHEAST GEORGIA...

CITY           SKY/WX    TMP DP  RH WIND       PRES   REMARKS
THOMSON        SUNNY     69  65  85 CALM      30.05R
AUGUSTA-BUSH   SUNNY     68  64  87 CALM      29.99R
6HR MIN TEMP:  59; 6HR MAX TEMP:  68; 6HR PCP: TRACE;

AUGUSTA-DANIEL SUNNY     73  57  57 NW3       30.00R
SWAINSBORO     PTSUNNY  N/A N/A N/A SW3       30.03R
VIDALIA        PTSUNNY   72  70  94 W3        30.02R
EASTMAN        PTSUNNY   71  71 100 CALM      30.05R FOG
HAZLEHURST     PTSUNNY   73  73  99 W3        30.02R
ALMA           PTSUNNY   73  71  93 CALM      30.01R
6HR MIN TEMP:  71; 6HR MAX TEMP:  73;

WAYCROSS       CLOUDY    76  76  99 W3        30.02R
JESUP          FAIR      77  73  88 W3        30.02R
BAXLEY         CLOUDY    73  72  94 CALM      30.01R
BRUNSWICK      CLOUDY    72  72 100 W3        30.02R
SAINT SIMONS   CLOUDY    73  71  93 W6        30.01R
6HR MIN TEMP:  73; 6HR MAX TEMP:  73;


$$

SCZ027-028-034-036>038-045-046-048>050-GAZ119-141-291300-
...LAKE AND SUPPLEMENTAL COASTAL OBSERVATIONS...

STATION/POSITION TIME  TEMP    WIND        PRES    WAVE   SWELL
                       AIR SEA DIR/SP/G            HT/PER HT/PER/DIR
                 (UTC) (F)     (DEG/KT/KT) (MB)    (FT/S) (FT/S/D)
UPR LAKE MARION  NOT AVBL
WINYAH BAY       1145   76     270/  5     1014.0R
LAKE MURRAY      1100   71     290/  4/  7 1014.2R
ACE BASIN NERRS  NOT AVBL
FORT PULASKI     1200   74 84  260/  6/  8 1016.3R
SAPELO ISLAND    1200   73     300/  4     1016.0R

$$

ANZ835-935-AMZ111-154-330-350-352-354-370-450-454-472-291300-
...C-MAN AND BUOY OBSERVATIONS...

STATION/POSITION TIME  TEMP    WIND        PRES    WAVE   SWELL
                       AIR SEA DIR/SP/G            HT/PER HT/PER/DIR
                 (UTC) (F)     (DEG/KT/KT) (MB)    (FT/S) (FT/S/D)
BUOY 41004       1150   80 83  260/ 14/ 17 1014.2R   5/ 5   2/ 8
BUOY 41008       1150   74 79  280/  8/ 12 1016.1R   3/ 8   2/130/ 8
FOLLY BEACH CMAN 1200   76     260/  3/  4 1015.2R
CAPERS NEARSHORE 1108   77     270/  8/ 14 1014.7R
FRIPP NEARSHORE  1100   77     280/ 12/ 14 1014.7R


STATION/POSITION TIME  TEMP    WIND        PRES    WAVE   SWELL
                       AIR SEA DIR/SP/G            HT/PER HT/PER/DIR
                 (UTC) (F)     (DEG/KT/KT) (MB)    (FT/S) (FT/S/D)
5E ST. MARYS GA  1121      78                N/A     2/ 9
FRYING PAN BUOY  1150   80 80  250/ 14/ 16 1014.3R   5/ 8   3/140/ 8
BUOY 41025       1150   79 81  110/ 12/ 14 1014.7R   4/ 8   3/150/ 8
CAPE LOOKOUT NC  1200   77     120/ 10/ 12 1014.8R
BUOY 41002       1150   81 80  210/ 14/ 17 1017.5R   7/ 7
BUOY 41010       1120   84 84  240/ 14/ 16 1016.8R
ST AUGUSTINE FL  1200   78 74  240/  4/  5 1017.5R


$$


USA.gov is the U.S. government's official web portal to all federal, state and local government web resources and services.